SCP
0 0 0 0 0 0 0 0 0 0 0 0 0 0 0 0 0 0 0 0 0 0 0 0 0 0 0 0 0 0 0 0 0 0 0 0 0 0 0 0 0 0 0
0 0 0 0 0 0 0 0 0 0 0 0 0 0 0 0 0 0 0 0 0 0 0 0 0 0 0 0 0 0 0 0 0 0 0 0 0 0 0 0 0 0 0
0 0 0 0 0 0 0 0 0 0 0 0 0 0 0 0 0 0 0 0 0 0 0 0 0 0 0 0 0 0 0 0 0 0 0 0 0 0 0 0 0 0 0
0 0 0 0 0 0 0 0 0 0 0 0 0 0 0 0 0 0 0 0 0 0 0 0 0 0 0 0 0 0 0 0 0 0 0 0 0 0 0 0 0 0 0
0 0 0 0 0 0 0 0 0 0 0 0 0 0 0 0 0 0 0 0 0 0 0 0 0 0 0 0 0 0 0 0 0 0 0 0 0 0 0 0 0 0 0
0 0 0 0 0 0 0 0 0 0 0 0 0 0 0 0 0 0 0 0 0 0 0 0 0 0 0 0 0 0 0 0 0 0 0 0 0 0 0 0 0 0 0
0 0 0 0 0 0 0 0 0 0 0 0 0 0 0 0 0 0 0 0 0 0 0 0 0 0 0 0 0 0 0 0 0 0 0 0 0 0 0 0 0 0 0
0 0 0 0 0 0 0 0 0 0 0 0 0 0 0 0 0 0 0 0 0 0 0 0 0 0 0 0 0 0 0 0 0 0 0 0 0 0 0 0 0 0 0
0 0 0 0 0 0 0 0 0 0 0 0 0 0 0 0 0 0 0 0 0 0 0 0 0 0 0 0 0 0 0 0 0 0 0 0 0 0 0 0 0 0 0
0 0 0 0 0 0 0 0 0 0 0 0 0 0 0 0 0 0 0 0 0 0 0 0 0 0 0 0 0 0 0 0 0 0 0 0 0 0 0 0 0 0 0
0 0 0 0 0 0 0 0 0 0 0 0 0 0 0 0 0 0 0 0 0 0 0 0 0 0 0 0 0 0 0 0 0 0 0 0 0 0 0 0 0 0 0
0 0 0 0 0 0 0 0 0 0 0 0 0 0 0 0 0 0 0 0 0 0 0 0 0 0 0 0 0 0 0 0 0 0 0 0 0 0 0 0 0 0 0
0 0 0 0 0 0 0 0 0 0 0 0 0 0 0 0 0 0 0 0 0 0 0 0 0 0 0 0 0 0 0 0 0 0 0 0 0 0 0 0 0 0 0
0 0 0 0 0 0 0 0 0 0 0 0 0 0 0 0 0 0 0 0 0 0 0 0 0 0 0 0 0 0 0 0 0 0 0 0 0 0 -0 -0 0 0 0
0 0 0 0 0 0 0 0 0 0 0 0 0 0 0 0 0 0 0 0 0 0 0 0 0 -0 0 0 0 0 0 0 -0 -0 -0 -0 -0 -0 -0 -0 0 0 -0
0 0 0 0 0 0 0 0 0 0 0 0 0 0 0 0 0 0 0 0 0 0 0 0 0 0 0 0 0 0 0 0 0 -0 -0 -0 -0 -0 -0 -0 -0 -0 -0
0 0 0 0 0 0 0 0 0 0 0 0 0 0 0 0 0 0 0 0 0 0 0 0 0 0 0 0 0 0 0 0 0 -0 -0 -0 -0 -0 -0 -0 -0 -0 -0
0 0 0 0 0 0 0 0 0 0 0 0 0 0 0 0 0 0 0 0 0 0 0 0 0 0 0 0 0 -0 -0 -0 0 -0 -0 -0 0 0 0 0 0 0 0
0 0 0 0 0 0 0 0 0 0 0 0 0 0 0 0 0 0 0 0 0 0 0 0 0 0 0 0 -0 -0 -0 -0 -0 -0 -0 -0 -0 -0 -0 -0 -0 0 0
0 0 0 0 0 0 0 0 0 0 0 0 0 0 0 0 0 0 0 0 0 0 0 0 0 0 0 -0 -0 -0 -0 -0 0 0 -0 -0 -0 -0 0 0 0 0 0
0 0 0 0 0 0 0 0 0 0 0 0 0 0 0 0 0 0 0 0 0 0 0 0 0 0 0 -0 -0 -0 -0 -0 -0 -0 -0 -0 0 0 0 0 0 -0 -0
0 0 0 0 0 0 0 0 0 0 0 0 0 0 0 0 0 0 0 0 0 0 0 0 0 0 0 0 0 -0 -0 -0 -0 -0 0 0 0 0 0 0 -0 -0 -0
0 0 0 0 0 0 0 0 0 0 0 0 0 0 0 0 0 0 0 0 0 0 0 0 0 0 0 0 0 0 0 0 0 0 0 0 0 0 0 0 0 0 0
0 0 0 0 0 0 0 0 0 0 0 0 0 0 0 0 0 0 0 0 0 0 0 0 0 0 0 0 0 0 0 0 0 0 0 0 0 0 0 0 0 0 0
0 0 0 0 0 0 0 0 0 0 0 0 0 0 0 0 0 0 0 0 0 0 0 0 0 0 0 0 0 0 0 0 0 0 0 0 0 0 0 0 0 0 0
0 0 0 0 0 0 0 0 0 0 0 0 0 0 0 0 0 0 0 0 0 0 0 0 0 0 0 0 0 0 0 0 0 0 0 0 0 0 0 0 0 0 0
Wind_Speed_500mb
48 45 42 37 32 27 22 18 18 17 16 18 20 22 23 23 24 25 24 24 24 23 22 23 23 24 23 23 20 19 21 27 29 28 25 27 29 33 41 41 38 38 38
53 50 46 43 38 31 25 21 20 19 19 19 20 20 22 24 26 25 26 25 23 23 22 20 21 19 16 13 7 10 16 23 26 29 31 30 31 33 38 39 40 40 38
59 56 52 49 42 36 31 27 25 24 23 22 21 21 22 23 23 24 22 21 17 17 18 17 14 8 6 16 5 11 11 13 19 25 26 26 30 36 38 35 40 43 44
64 62 59 54 49 42 36 32 31 28 26 23 21 22 22 23 24 22 18 15 13 11 10 10 13 11 12 15 15 13 11 6 16 21 21 24 28 32 35 38 37 36 44
71 69 65 59 53 49 42 37 35 32 30 27 24 24 24 22 22 19 14 10 8 7 7 9 10 11 13 14 13 13 16 20 28 27 28 29 31 31 32 33 35 36 39
77 75 70 66 61 54 49 45 39 37 33 29 27 25 25 23 22 17 14 10 8 7 9 11 12 14 14 14 19 24 29 33 33 34 36 35 35 35 35 39 40 37 36
83 81 76 72 67 61 54 47 45 41 35 30 27 23 19 19 15 16 17 4 5 7 5 8 12 15 19 26 30 31 32 33 31 32 34 36 38 40 41 44 46 46 42
88 85 81 77 71 66 61 56 51 44 39 34 27 23 13 14 23 25 25 22 14 9 7 14 18 21 22 22 24 24 24 24 25 29 33 36 39 43 44 46 47 50 52
93 91 85 79 74 69 65 59 54 49 43 38 32 21 10 11 13 20 29 29 21 17 15 14 15 17 18 16 16 16 17 16 19 25 29 32 35 39 43 48 51 53 54
97 94 90 85 79 74 70 65 61 56 50 45 36 31 28 27 18 12 20 24 21 26 21 16 17 12 13 11 13 12 9 23 30 33 37 40 43 46 48 47 46 49 55
97 95 91 87 84 79 75 72 67 61 57 52 45 37 33 32 32 31 26 25 25 27 21 18 14 13 15 10 13 15 22 34 38 41 43 46 49 50 51 53 55 55 56
98 95 93 91 87 84 80 75 69 67 63 57 51 46 40 36 34 35 34 32 30 27 22 21 19 18 13 24 17 29 39 43 48 52 53 53 54 56 58 59 61 62 63
99 99 97 97 95 89 83 78 76 73 70 64 56 51 45 42 40 38 37 35 34 30 22 20 18 21 22 26 33 43 46 49 52 55 58 60 62 62 63 65 67 69 72
86 92 95 98 94 90 85 82 80 75 72 68 62 58 52 47 43 40 39 36 33 32 31 18 24 18 21 32 43 51 53 57 58 60 59 58 60 63 67 70 72 73 72
83 85 88 95 93 91 87 84 83 80 76 72 69 62 58 53 48 45 42 40 37 29 30 24 25 30 39 45 51 56 60 61 61 62 63 64 65 65 66 69 73 75 73
87 86 86 88 95 93 90 88 88 83 81 77 74 70 64 59 53 50 46 43 40 38 34 32 32 38 38 44 48 55 57 60 60 63 65 67 68 68 70 72 73 77 79
92 91 90 89 90 94 95 94 92 86 85 83 81 78 71 65 59 54 50 46 44 45 44 43 39 35 38 42 46 54 57 60 63 64 65 67 69 72 75 78 79 80 81
96 94 92 93 94 93 98 101 100 94 91 90 88 85 79 71 64 59 54 50 47 48 47 43 42 42 41 47 54 58 62 63 64 63 65 67 69 70 76 79 78 79 81
103 102 100 99 98 99 101 106 104 100 94 90 93 90 82 77 71 64 59 54 51 50 48 49 45 40 44 47 52 59 66 72 73 75 73 70 69 75 82 84 80 81 83
97 104 104 104 101 103 103 111 109 106 98 95 95 92 88 82 75 67 62 58 55 52 49 48 43 40 45 46 55 65 69 69 77 75 66 80 89 91 91 91 88 88 90
96 100 99 105 105 109 112 116 115 108 103 103 100 97 92 86 76 70 67 62 57 53 50 47 40 41 44 48 54 60 69 76 80 67 76 93 95 100 101 102 100 99 98
90 94 102 101 108 112 117 119 116 112 109 108 106 102 96 87 81 76 70 64 59 54 50 46 39 40 42 45 48 56 63 71 79 69 91 96 91 103 103 102 101 105 103
79 90 97 104 104 110 117 118 118 114 111 112 111 106 100 92 84 77 72 66 61 58 53 45 40 37 40 39 46 49 56 63 71 81 89 107 95 104 97 105 105 105 109
70 77 87 98 101 109 111 114 117 113 112 114 114 108 102 93 84 79 71 68 61 51 47 39 35 33 36 36 40 45 52 63 71 73 72 104 95 103 110 113 107 104 105
63 71 80 87 93 103 105 111 113 118 116 116 110 103 94 89 81 76 72 70 62 55 45 36 37 34 29 30 34 42 48 60 74 78 75 68 94 109 119 119 108 108 112
59 67 73 79 81 89 93 99 108 116 110 111 105 102 93 85 76 77 75 69 63 54 42 36 33 28 30 31 32 37 47 55 60 73 50 64 90 88 86 108 114 120 114
Wind_Direction_500mb
226 226 226 227 230 235 240 250 265 276 284 296 305 313 318 317 316 312 302 293 284 273 265 258 258 262 267 273 272 273 273 271 272 276 280 276 270 267 260 262 266 267 267
227 226 226 227 230 233 242 254 263 272 284 295 301 307 309 313 314 309 302 294 281 271 264 257 252 253 250 264 91 222 253 265 271 271 271 277 277 273 266 256 258 263 266
228 228 228 229 231 233 239 249 258 267 276 284 295 306 312 316 316 312 302 291 282 273 263 253 250 215 157 105 174 246 273 315 283 281 289 285 282 283 288 287 270 263 265
229 230 230 229 230 233 237 240 250 259 270 281 294 301 306 313 315 308 298 285 277 266 267 260 251 238 203 199 238 277 288 357 309 292 299 291 289 287 287 285 281 276 264
230 231 231 230 231 232 234 242 249 257 265 277 286 295 300 305 303 294 280 259 254 266 266 261 250 244 244 258 280 281 278 284 290 302 297 297 295 294 292 289 287 285 279
231 231 230 230 231 232 235 239 245 252 260 270 282 290 296 297 291 264 236 225 253 261 266 265 266 273 280 283 299 299 296 295 299 299 297 295 294 291 289 287 285 285 282
231 231 230 229 231 232 235 237 242 248 257 266 276 282 287 285 255 232 216 196 288 257 254 269 273 274 276 288 295 297 297 302 306 304 300 300 297 294 292 289 289 290 289
230 232 231 231 231 231 231 235 240 246 252 258 262 274 267 252 248 229 223 248 271 243 297 299 286 284 288 293 296 298 300 303 305 305 304 301 298 295 292 291 290 290 292
228 229 230 232 232 233 234 238 240 243 246 250 254 250 240 228 187 211 244 251 237 241 296 287 289 289 292 295 298 297 294 297 312 314 309 303 302 303 300 296 292 288 287
230 230 229 228 230 232 233 235 237 238 240 244 247 251 252 247 236 248 243 254 230 280 307 297 299 297 299 306 308 302 310 320 312 309 307 307 306 302 298 297 296 294 291
230 231 230 230 230 231 232 233 235 237 240 242 244 246 245 246 248 243 255 253 252 273 289 300 299 305 313 316 304 292 315 315 319 319 318 315 309 305 303 300 298 296 295
231 230 231 231 232 233 232 233 236 236 238 241 240 243 246 244 250 250 251 261 269 281 287 293 306 318 327 331 326 320 327 330 331 329 327 323 318 314 311 309 308 306 302
232 230 231 230 231 232 233 233 233 236 239 239 241 245 246 248 251 253 256 264 272 279 281 281 286 309 321 323 323 327 332 332 332 330 328 326 322 319 316 315 313 312 311
240 237 234 233 233 234 234 234 236 237 236 237 239 241 245 246 250 253 254 256 263 273 282 281 299 301 318 319 324 329 332 329 329 328 327 325 322 321 320 318 316 315 312
245 242 239 237 235 234 235 236 238 238 238 238 238 239 243 246 248 250 253 257 258 260 278 288 299 312 320 321 325 327 327 326 326 329 326 324 324 324 321 317 314 312 310
248 245 243 239 236 234 233 234 236 237 237 238 238 238 240 245 248 251 253 255 260 256 253 269 276 293 305 311 316 319 320 321 323 323 324 326 327 324 319 317 315 314 312
249 248 245 242 238 234 232 233 234 235 236 237 237 238 240 243 245 249 252 255 258 260 262 265 271 283 292 302 309 312 315 318 317 319 321 323 322 322 321 319 318 319 314
251 248 247 244 241 238 236 234 234 232 232 234 237 236 237 238 241 246 249 252 254 258 264 272 281 292 306 318 321 322 324 324 319 317 318 320 319 317 313 315 320 316 310
254 249 246 243 242 240 238 236 235 234 233 235 237 236 236 237 240 242 245 248 251 254 261 269 282 297 311 317 321 325 326 327 327 329 332 328 324 321 320 321 320 315 310
258 254 250 247 245 243 240 238 235 234 233 234 235 235 235 235 237 240 242 245 246 250 257 268 280 295 310 318 325 326 321 323 324 325 331 327 329 328 327 325 323 318 312
264 258 251 248 246 243 241 237 234 234 234 233 232 232 233 233 235 236 238 240 244 248 256 262 277 295 304 318 323 323 320 323 322 330 329 326 329 326 328 325 322 319 318
268 262 257 252 249 246 244 240 237 234 233 232 231 230 231 231 232 234 237 238 243 248 254 261 274 292 303 314 317 319 321 325 325 329 327 323 327 323 326 322 319 320 316
267 263 259 254 252 250 245 241 238 235 234 232 229 228 228 229 229 231 236 238 239 243 248 262 278 291 297 308 312 312 316 319 317 324 324 317 325 321 322 316 317 318 315
266 264 261 257 253 250 246 241 240 237 233 232 231 229 227 226 226 229 231 233 235 238 246 257 274 282 290 299 312 315 314 311 312 316 321 312 324 321 319 315 317 316 313
270 262 258 255 252 250 245 240 237 235 230 228 228 228 227 227 226 227 229 231 230 234 238 249 265 281 296 295 299 303 311 309 313 316 322 313 325 323 318 317 320 321 314
277 267 261 256 254 251 246 241 236 234 228 226 224 224 226 225 224 227 227 227 230 233 232 244 256 267 277 287 294 300 305 306 310 315 315 314 319 323 317 315 316 319 314
Wind_Speed_850mb
48 45 42 37 32 27 22 18 18 17 16 18 20 22 23 23 24 25 24 24 24 23 22 23 23 24 23 23 20 19 21 27 29 28 25 27 29 33 41 41 38 38 38
53 50 46 43 38 31 25 21 20 19 19 19 20 20 22 24 26 25 26 25 23 23 22 20 21 19 16 13 7 10 16 23 26 29 31 30 31 33 38 39 40 40 38
59 56 52 49 42 36 31 27 25 24 23 22 21 21 22 23 23 24 22 21 17 17 18 17 14 8 6 16 5 11 11 13 19 25 26 26 30 36 38 35 40 43 44
64 62 59 54 49 42 36 32 31 28 26 23 21 22 22 23 24 22 18 15 13 11 10 10 13 11 12 15 15 13 11 6 16 21 21 24 28 32 35 38 37 36 44
71 69 65 59 53 49 42 37 35 32 30 27 24 24 24 22 22 19 14 10 8 7 7 9 10 11 13 14 13 13 16 20 28 27 28 29 31 31 32 33 35 36 39
77 75 70 66 61 54 49 45 39 37 33 29 27 25 25 23 22 17 14 10 8 7 9 11 12 14 14 14 19 24 29 33 33 34 36 35 35 35 35 39 40 37 36
83 81 76 72 67 61 54 47 45 41 35 30 27 23 19 19 15 16 17 4 5 7 5 8 12 15 19 26 30 31 32 33 31 32 34 36 38 40 41 44 46 46 42
88 85 81 77 71 66 61 56 51 44 39 34 27 23 13 14 23 25 25 22 14 9 7 14 18 21 22 22 24 24 24 24 25 29 33 36 39 43 44 46 47 50 52
93 91 85 79 74 69 65 59 54 49 43 38 32 21 10 11 13 20 29 29 21 17 15 14 15 17 18 16 16 16 17 16 19 25 29 32 35 39 43 48 51 53 54
97 94 90 85 79 74 70 65 61 56 50 45 36 31 28 27 18 12 20 24 21 26 21 16 17 12 13 11 13 12 9 23 30 33 37 40 43 46 48 47 46 49 55
97 95 91 87 84 79 75 72 67 61 57 52 45 37 33 32 32 31 26 25 25 27 21 18 14 13 15 10 13 15 22 34 38 41 43 46 49 50 51 53 55 55 56
98 95 93 91 87 84 80 75 69 67 63 57 51 46 40 36 34 35 34 32 30 27 22 21 19 18 13 24 17 29 39 43 48 52 53 53 54 56 58 59 61 62 63
99 99 97 97 95 89 83 78 76 73 70 64 56 51 45 42 40 38 37 35 34 30 22 20 18 21 22 26 33 43 46 49 52 55 58 60 62 62 63 65 67 69 72
86 92 95 98 94 90 85 82 80 75 72 68 62 58 52 47 43 40 39 36 33 32 31 18 24 18 21 32 43 51 53 57 58 60 59 58 60 63 67 70 72 73 72
83 85 88 95 93 91 87 84 83 80 76 72 69 62 58 53 48 45 42 40 37 29 30 24 25 30 39 45 51 56 60 61 61 62 63 64 65 65 66 69 73 75 73
87 86 86 88 95 93 90 88 88 83 81 77 74 70 64 59 53 50 46 43 40 38 34 32 32 38 38 44 48 55 57 60 60 63 65 67 68 68 70 72 73 77 79
92 91 90 89 90 94 95 94 92 86 85 83 81 78 71 65 59 54 50 46 44 45 44 43 39 35 38 42 46 54 57 60 63 64 65 67 69 72 75 78 79 80 81
96 94 92 93 94 93 98 101 100 94 91 90 88 85 79 71 64 59 54 50 47 48 47 43 42 42 41 47 54 58 62 63 64 63 65 67 69 70 76 79 78 79 81
103 102 100 99 98 99 101 106 104 100 94 90 93 90 82 77 71 64 59 54 51 50 48 49 45 40 44 47 52 59 66 72 73 75 73 70 69 75 82 84 80 81 83
97 104 104 104 101 103 103 111 109 106 98 95 95 92 88 82 75 67 62 58 55 52 49 48 43 40 45 46 55 65 69 69 77 75 66 80 89 91 91 91 88 88 90
96 100 99 105 105 109 112 116 115 108 103 103 100 97 92 86 76 70 67 62 57 53 50 47 40 41 44 48 54 60 69 76 80 67 76 93 95 100 101 102 100 99 98
90 94 102 101 108 112 117 119 116 112 109 108 106 102 96 87 81 76 70 64 59 54 50 46 39 40 42 45 48 56 63 71 79 69 91 96 91 103 103 102 101 105 103
79 90 97 104 104 110 117 118 118 114 111 112 111 106 100 92 84 77 72 66 61 58 53 45 40 37 40 39 46 49 56 63 71 81 89 107 95 104 97 105 105 105 109
70 77 87 98 101 109 111 114 117 113 112 114 114 108 102 93 84 79 71 68 61 51 47 39 35 33 36 36 40 45 52 63 71 73 72 104 95 103 110 113 107 104 105
63 71 80 87 93 103 105 111 113 118 116 116 110 103 94 89 81 76 72 70 62 55 45 36 37 34 29 30 34 42 48 60 74 78 75 68 94 109 119 119 108 108 112
59 67 73 79 81 89 93 99 108 116 110 111 105 102 93 85 76 77 75 69 63 54 42 36 33 28 30 31 32 37 47 55 60 73 50 64 90 88 86 108 114 120 114
Wind_Direction_850mb
226 226 226 227 230 235 240 250 265 276 284 296 305 313 318 317 316 312 302 293 284 273 265 258 258 262 267 273 272 273 273 271 272 276 280 276 270 267 260 262 266 267 267
227 226 226 227 230 233 242 254 263 272 284 295 301 307 309 313 314 309 302 294 281 271 264 257 252 253 250 264 91 222 253 265 271 271 271 277 277 273 266 256 258 263 266
228 228 228 229 231 233 239 249 258 267 276 284 295 306 312 316 316 312 302 291 282 273 263 253 250 215 157 105 174 246 273 315 283 281 289 285 282 283 288 287 270 263 265
229 230 230 229 230 233 237 240 250 259 270 281 294 301 306 313 315 308 298 285 277 266 267 260 251 238 203 199 238 277 288 357 309 292 299 291 289 287 287 285 281 276 264
230 231 231 230 231 232 234 242 249 257 265 277 286 295 300 305 303 294 280 259 254 266 266 261 250 244 244 258 280 281 278 284 290 302 297 297 295 294 292 289 287 285 279
231 231 230 230 231 232 235 239 245 252 260 270 282 290 296 297 291 264 236 225 253 261 266 265 266 273 280 283 299 299 296 295 299 299 297 295 294 291 289 287 285 285 282
231 231 230 229 231 232 235 237 242 248 257 266 276 282 287 285 255 232 216 196 288 257 254 269 273 274 276 288 295 297 297 302 306 304 300 300 297 294 292 289 289 290 289
230 232 231 231 231 231 231 235 240 246 252 258 262 274 267 252 248 229 223 248 271 243 297 299 286 284 288 293 296 298 300 303 305 305 304 301 298 295 292 291 290 290 292
228 229 230 232 232 233 234 238 240 243 246 250 254 250 240 228 187 211 244 251 237 241 296 287 289 289 292 295 298 297 294 297 312 314 309 303 302 303 300 296 292 288 287
230 230 229 228 230 232 233 235 237 238 240 244 247 251 252 247 236 248 243 254 230 280 307 297 299 297 299 306 308 302 310 320 312 309 307 307 306 302 298 297 296 294 291
230 231 230 230 230 231 232 233 235 237 240 242 244 246 245 246 248 243 255 253 252 273 289 300 299 305 313 316 304 292 315 315 319 319 318 315 309 305 303 300 298 296 295
231 230 231 231 232 233 232 233 236 236 238 241 240 243 246 244 250 250 251 261 269 281 287 293 306 318 327 331 326 320 327 330 331 329 327 323 318 314 311 309 308 306 302
232 230 231 230 231 232 233 233 233 236 239 239 241 245 246 248 251 253 256 264 272 279 281 281 286 309 321 323 323 327 332 332 332 330 328 326 322 319 316 315 313 312 311
240 237 234 233 233 234 234 234 236 237 236 237 239 241 245 246 250 253 254 256 263 273 282 281 299 301 318 319 324 329 332 329 329 328 327 325 322 321 320 318 316 315 312
245 242 239 237 235 234 235 236 238 238 238 238 238 239 243 246 248 250 253 257 258 260 278 288 299 312 320 321 325 327 327 326 326 329 326 324 324 324 321 317 314 312 310
248 245 243 239 236 234 233 234 236 237 237 238 238 238 240 245 248 251 253 255 260 256 253 269 276 293 305 311 316 319 320 321 323 323 324 326 327 324 319 317 315 314 312
249 248 245 242 238 234 232 233 234 235 236 237 237 238 240 243 245 249 252 255 258 260 262 265 271 283 292 302 309 312 315 318 317 319 321 323 322 322 321 319 318 319 314
251 248 247 244 241 238 236 234 234 232 232 234 237 236 237 238 241 246 249 252 254 258 264 272 281 292 306 318 321 322 324 324 319 317 318 320 319 317 313 315 320 316 310
254 249 246 243 242 240 238 236 235 234 233 235 237 236 236 237 240 242 245 248 251 254 261 269 282 297 311 317 321 325 326 327 327 329 332 328 324 321 320 321 320 315 310
258 254 250 247 245 243 240 238 235 234 233 234 235 235 235 235 237 240 242 245 246 250 257 268 280 295 310 318 325 326 321 323 324 325 331 327 329 328 327 325 323 318 312
264 258 251 248 246 243 241 237 234 234 234 233 232 232 233 233 235 236 238 240 244 248 256 262 277 295 304 318 323 323 320 323 322 330 329 326 329 326 328 325 322 319 318
268 262 257 252 249 246 244 240 237 234 233 232 231 230 231 231 232 234 237 238 243 248 254 261 274 292 303 314 317 319 321 325 325 329 327 323 327 323 326 322 319 320 316
267 263 259 254 252 250 245 241 238 235 234 232 229 228 228 229 229 231 236 238 239 243 248 262 278 291 297 308 312 312 316 319 317 324 324 317 325 321 322 316 317 318 315
266 264 261 257 253 250 246 241 240 237 233 232 231 229 227 226 226 229 231 233 235 238 246 257 274 282 290 299 312 315 314 311 312 316 321 312 324 321 319 315 317 316 313
270 262 258 255 252 250 245 240 237 235 230 228 228 228 227 227 226 227 229 231 230 234 238 249 265 281 296 295 299 303 311 309 313 316 322 313 325 323 318 317 320 321 314
277 267 261 256 254 251 246 241 236 234 228 226 224 224 226 225 224 227 227 227 230 233 232 244 256 267 277 287 294 300 305 306 310 315 315 314 319 323 317 315 316 319 314